User: anonymous
Location: Columbia
(38.9520°N, 92.3340°W)
Time: 15:29:46
(UTC-05:00)
Language:

Iridium 15 - Orbit

View from above orbital plane
View from above orbital plane
View from above satellite
View from above satellite

Ground track
Ground track

The orbit data is extracted from the following two-line orbital elements,

1 24869U 97034A   14209.28804332  .00000312  00000-0  10451-3 0    01
2 24869 086.3965 102.7937 0002215 099.0662 040.2524 14.34217841892718
Epoch (UTC): 28 July 2014 06:54:46
Eccentricity: 0.0002215
inclination: 86.3965°
perigee height: 776 km
apogee height: 779 km
right ascension of ascending node: 102.7937°
argument of perigee: 99.0662°
revolutions per day: 14.34217841
mean anomaly at epoch: 40.2524°
orbit number at epoch: 89271

The dashed part of the orbit path shows where the satellite is in the earth's shadow,  

DLR